User: anonymous   Login
Location: Unspecified
(0.0000°N, 0.0000°E)
Time: 19:48:40
(UTC+00:00)
Language:

Triad OI-1X - Orbit

View from above orbital plane
View from above orbital plane
View from above satellite
View from above satellite

Ground track
Ground track

The orbit data is extracted from the following two-line orbital elements,

1  6173U 72069A   17268.92477899 +.00000166 +00000-0 +39472-4 0  9992
2  6173 089.8779 228.6855 0055278 107.6767 309.9813 14.48827900368906
Epoch (UTC): 25 September 2017 22:11:40
Eccentricity: 0.0055278
inclination: 89.8779°
perigee height: 690 km
apogee height: 769 km
right ascension of ascending node: 228.6855°
argument of perigee: 107.6767°
revolutions per day: 14.48827900
mean anomaly at epoch: 309.9813°
orbit number at epoch: 36890

The dashed part of the orbit path shows where the satellite is in the earth's shadow,  

DLR